Weather History for KFLG - April, 2014

Change the Weather History Date:

Tuesday, April 8, 2014

  Actual Average Record
Temperature  
Mean Temperature 47 °F 41 °F  
Max Temperature 69 °F 56 °F 78 °F (1989)
Min Temperature 24 °F 27 °F 14 °F (1983)
Degree Days  
Heating Degree Days 18 24  
Month to date heating degree days 207 196  
Since 1 July heating degree days 5569 5903  
Cooling Degree Days 0 0  
Month to date cooling degree days 0 0  
Year to date cooling degree days 0 0  
Moisture  
Dew Point 15 °F    
Average Humidity 37    
Maximum Humidity 63    
Minimum Humidity 10    
Precipitation  
Precipitation 0.00 in 0.05 in 1.04 in (1935)
Month to date precipitation 0.33 0.38  
Year to date precipitation 2.17 6.71  
Snow  
Snow 0.00 in 0.30 in 7.40 in (1975)
Month to date snowfall 3.6 2.5  
Since 1 July snowfall 38.5 96.4  
Snow Depth 0.00 in    
Sea Level Pressure  
Sea Level Pressure 30.20 in    
Wind  
Wind Speed 3 mph (SW)    
Max Wind Speed 20 mph    
Max Gust Speed 27 mph    
Visibility 10 miles    
Events      
T = Trace of Precipitation, MM = Missing Value Source: NWS Daily Summary

Daily Weather History Graph

Daily Weather History Graph

Search for Another Location

Airport or City:

Trip Planner

Search our weather history database for the weather conditions in past years. The results will help you decide how hot, cold, wet, or windy it might be!

Date:

Astronomy

Apr. 08, 2014 Rise Set
Actual Time 6:03 AM MST 6:53 PM MST
Civil Twilight 5:37 AM MST 7:19 PM MST
Nautical Twilight 5:07 AM MST 7:50 PM MST
Astronomical Twilight 4:36 AM MST 8:21 PM MST
Moon 1:03 PM MST (4/8) 2:05 AM MST (4/8)
Length of Visible Light 13h 41m
Length of Day
12h 50m
Waxing Gibbous, 63% of the Moon is Illuminated
Apr 8
Waxing Gibbous
Apr 15
Full
Apr 22
Last Quarter
Apr 28
New
May 6
First Quarter

Hourly Weather History & Observations

Time (MST) Temp. Dew Point Humidity Pressure Visibility Wind Dir Wind Speed Gust Speed Precip Events Conditions
12:57 AM 28.9 °F 15.1 °F 56% 30.23 in 10.0 mi Calm Calm - N/A   Clear
1:57 AM 28.0 °F 14.0 °F 56% 30.22 in 10.0 mi Calm Calm - N/A   Clear
2:57 AM 27.0 °F 15.1 °F 61% 30.21 in 10.0 mi Calm Calm - N/A   Clear
3:57 AM 27.0 °F 14.0 °F 58% 30.21 in 10.0 mi Calm Calm - N/A   Clear
4:57 AM 26.1 °F 14.0 °F 60% 30.22 in 10.0 mi Calm Calm - N/A   Clear
5:57 AM 25.0 °F 14.0 °F 63% 30.24 in 10.0 mi Calm Calm - N/A   Clear
6:57 AM 28.9 °F 18.0 °F 64% 30.26 in 10.0 mi Calm Calm - N/A   Clear
7:57 AM 45.0 °F 19.9 °F 37% 30.24 in 10.0 mi Calm Calm - N/A   Clear
8:57 AM 55.9 °F 21.0 °F 26% 30.22 in 10.0 mi NE 5.8 mph - N/A   Clear
9:57 AM 60.1 °F 16.0 °F 18% 30.24 in 10.0 mi Variable 3.5 mph - N/A   Clear
10:57 AM 62.1 °F 14.0 °F 15% 30.24 in 10.0 mi Variable 3.5 mph - N/A   Clear
11:57 AM 64.9 °F 12.0 °F 13% 30.22 in 10.0 mi Variable 3.5 mph - N/A   Clear
12:57 PM 64.9 °F 14.0 °F 14% 30.22 in 10.0 mi Calm Calm - N/A   Clear
1:57 PM 68.0 °F 16.0 °F 14% 30.19 in - North - - N/A   Clear
2:57 PM 66.9 °F 15.1 °F 14% 30.17 in 10.0 mi South 11.5 mph 24.2 mph N/A   Clear
3:57 PM 69.1 °F 12.0 °F 11% 30.15 in 10.0 mi WSW 11.5 mph 26.5 mph N/A   Clear
4:57 PM 69.1 °F 10.0 °F 10% 30.15 in 10.0 mi West 11.5 mph 19.6 mph N/A   Clear
5:57 PM 66.0 °F 9.0 °F 11% 30.17 in 10.0 mi WSW 11.5 mph - N/A   Clear
6:57 PM 57.0 °F 14.0 °F 18% 30.19 in 10.0 mi SSW 6.9 mph - N/A   Clear
7:57 PM 48.9 °F 16.0 °F 27% 30.18 in 10.0 mi Calm Calm - N/A   Clear
8:57 PM 44.1 °F 16.0 °F 32% 30.17 in 10.0 mi Calm Calm - N/A   Clear
9:57 PM 39.9 °F 16.0 °F 38% 30.17 in 10.0 mi Calm Calm - N/A   Clear
10:57 PM 37.0 °F 16.0 °F 42% 30.17 in 10.0 mi Calm Calm - N/A   Clear
11:57 PM 33.1 °F 16.0 °F 50% 30.18 in 10.0 mi Calm Calm - N/A   Clear